Terminal Aerodrome Forecast
Issued by NWS

Home | Current Version | Previous Version | Text Only | Print | Product List | Glossary On
Versions: 1 2 3 4 5 6 7 8 9 10 11 12 13 14 15 16 17 18 19 20 21 22 23 24 25 26 27 28 29 30 31
000
FTUS46 KOTX 170032 CCA
TAFCOE
TAF COR
KCOE 170032Z 1700/1724 21006KT P6SM SKC
     FM170500 16006KT P6SM BKN200
     FM171500 10009KT P6SM SCT150 BKN200 WS020/24030KT
     FM171700 20015G26KT P6SM SCT150
     FM171900 22018G39KT P6SM BKN080 BKN150
     FM172200 22020G43KT 5SM HZ SCT100=

USA.gov is the U.S. government's official web portal to all federal, state and local government web resources and services.